User: anonymous   Login
Location: Anjeux
(47.8815°N, 6.2076°E)
Time: 18:04:50
(UTC+00:00)
Language:

deb Chang Zheng 4 - Orbit

View from above orbital plane
View from above orbital plane
View from above satellite
View from above satellite

Ground track
Ground track

The orbit data is extracted from the following two-line orbital elements,

1 20847U 90081K   21129.11458171  .00001764  00000-0  20839-3 0  9995
2 20847  98.5758 129.8052 0015734 180.5974 179.5223 14.86047571616573
Epoch (UTC): 09 May 2021 02:44:59
Eccentricity: 0.0015734
inclination: 98.5758°
perigee height: 599 km
apogee height: 621 km
right ascension of ascending node: 129.8052°
argument of perigee: 180.5974°
revolutions per day: 14.86047571
mean anomaly at epoch: 179.5223°
orbit number at epoch: 61657

The dashed part of the orbit path shows where the satellite is in the earth's shadow,  

DLR